sat.trackr.live / text

‹ back to catalog

GAOFEN-12 05

NORAD 61571 · 2024-186A

PAYLOAD ACTIVE UNKNOWN

§ Identity

Operator
Country
PRC
Launch date
2024-10-15
Launch site
JSC
Launch vehicle
Mass (kg)
RCS (m²)

External: N2YO · Heavens-Above · Gunter

§ Orbital elements

Epoch: 2026-05-25T03:57:50.054688Z

Period
97.24 min
Inclination
97.9097°
Eccentricity
0.0001711
Mean motion
14.80935907 rev/d
Perigee alt
625.2 km
Apogee alt
627.6 km
Semi-major
7,004.5 km
B*
4.9388e-5
RAAN
153.6141°
Arg perigee
60.9398°
Mean anomaly
299.1986°
Rev number
8,593

§ Raw data

GAOFEN-12 051 61571U 24186A   26145.16516267  .00000330  00000+0  49388-4 0  99942 61571  97.9097 153.6141 0001711  60.9398 299.1986 14.80935907 85934

JSON: /api/v1/satellites/61571 · /tle

For live sub-satellite position, see the globe view (requires WebGL).

§ Visibility from observer

Set your observer location to see the next 7 days of passes ≥ 10°. The values pass through the URL so the page stays shareable.

No JS? Fill the form by hand. The geolocation button needs JavaScript.